Hourly Weather Klaniny

Today, 30 July, Friday

Time Temperature Precipitation Wind Pressure Humidity
00:00 +16°C° 0 mm 3 mps 747 mmHg 70%
01:00 +16°C° 0 mm 3 mps 747 mmHg 69%
02:00 +14°C° 0 mm 3 mps 747 mmHg 71%
03:00 +14°C° 0 mm 3 mps 747 mmHg 72%
04:00 +13°C° 0 mm 3 mps 746 mmHg 74%
05:00 +15°C° 0 mm 4 mps 746 mmHg 69%
06:00 +16°C° 0 mm 5 mps 746 mmHg 64%
07:00 +17°C° 0 mm 6 mps 746 mmHg 59%
08:00 +20°C° 0 mm 6 mps 746 mmHg 52%
09:00 +21°C° 0 mm 7 mps 746 mmHg 46%
10:00 +22°C° 0 mm 8 mps 746 mmHg 39%
11:00 +23°C° 0 mm 7 mps 746 mmHg 37%
12:00 +24°C° 0 mm 7 mps 745 mmHg 35%
13:00 +26°C° 0 mm 7 mps 745 mmHg 33%
14:00 +26°C° 0 mm 7 mps 745 mmHg 33%
15:00 +26°C° 0 mm 7 mps 745 mmHg 34%
16:00 +26°C° 0 mm 6 mps 745 mmHg 34%
17:00 +24°C° 0 mm 6 mps 745 mmHg 38%
18:00 +23°C° 0 mm 5 mps 745 mmHg 42%
19:00 +21°C° 0 mm 4 mps 745 mmHg 46%
20:00 +20°C° 0 mm 4 mps 745 mmHg 51%
21:00 +19°C° 0 mm 3 mps 745 mmHg 56%
22:00 +17°C° 0 mm 3 mps 745 mmHg 61%
23:00 +17°C° 0 mm 2 mps 745 mmHg 65%

Tomorrow, 31 July, Saturday

Time Temperature Precipitation Wind Pressure Humidity
00:00 +16°C° 0 mm 2 mps 745 mmHg 69%
01:00 +16°C° 0 mm 2 mps 745 mmHg 72%
02:00 +15°C° 0 mm 2 mps 745 mmHg 73%
03:00 +15°C° 0 mm 2 mps 745 mmHg 74%
04:00 +15°C° 0 mm 2 mps 745 mmHg 75%
05:00 +17°C° 0 mm 2 mps 745 mmHg 70%
06:00 +18°C° 0 mm 3 mps 745 mmHg 64%
07:00 +20°C° 0 mm 3 mps 745 mmHg 59%
08:00 +22°C° 0 mm 4 mps 745 mmHg 55%
09:00 +23°C° 0 mm 4 mps 745 mmHg 50%
10:00 +26°C° 0 mm 5 mps 744 mmHg 45%
11:00 +26°C° 0 mm 5 mps 744 mmHg 46%
12:00 +27°C° 0 mm 5 mps 744 mmHg 46%
13:00 +27°C° 0 mm 5 mps 744 mmHg 47%
14:00 +27°C° 0 mm 5 mps 743 mmHg 43%
15:00 +28°C° 0 mm 5 mps 743 mmHg 39%
16:00 +28°C° 0 mm 5 mps 743 mmHg 35%
17:00 +26°C° 0 mm 5 mps 743 mmHg 40%
18:00 +25°C° 0 mm 5 mps 743 mmHg 45%
19:00 +22°C° 0 mm 4 mps 743 mmHg 50%
20:00 +21°C° 0 mm 4 mps 744 mmHg 53%
21:00 +20°C° 0 mm 4 mps 744 mmHg 57%
22:00 +18°C° 0 mm 4 mps 744 mmHg 60%
23:00 +18°C° 0 mm 4 mps 744 mmHg 63%

Day after tomorrow, 1 August, Sunday

Time Temperature Precipitation Wind Pressure Humidity
00:00 +17°C° 0 mm 4 mps 744 mmHg 66%
01:00 +17°C° 0 mm 4 mps 744 mmHg 68%
02:00 +15°C° 0 mm 4 mps 744 mmHg 72%
03:00 +15°C° 0 mm 4 mps 745 mmHg 76%
04:00 +16°C° 0 mm 3 mps 745 mmHg 80%
05:00 +15°C° 0 mm 4 mps 745 mmHg 78%
06:00 +17°C° 0 mm 4 mps 745 mmHg 76%
07:00 +18°C° 0 mm 4 mps 745 mmHg 74%
08:00 +19°C° 0 mm 4 mps 745 mmHg 68%
09:00 +20°C° 0 mm 4 mps 746 mmHg 62%
10:00 +21°C° 0 mm 4 mps 746 mmHg 57%
11:00 +22°C° 0 mm 4 mps 746 mmHg 52%
12:00 +23°C° 0 mm 4 mps 746 mmHg 47%
13:00 +25°C° 0 mm 4 mps 746 mmHg 42%
14:00 +24°C° 0 mm 3 mps 746 mmHg 46%
15:00 +22°C° 0 mm 3 mps 746 mmHg 51%
16:00 +21°C° 0 mm 3 mps 746 mmHg 55%
17:00 +21°C° 0 mm 3 mps 746 mmHg 57%
18:00 +20°C° 0 mm 2 mps 745 mmHg 59%
19:00 +20°C° 0 mm 2 mps 745 mmHg 61%
20:00 +19°C° 0 mm 2 mps 745 mmHg 64%
21:00 +18°C° 0 mm 2 mps 746 mmHg 67%
22:00 +18°C° 0 mm 1 mps 746 mmHg 70%
23:00 +16°C° 0 mm 1 mps 746 mmHg 72%

2 August, Monday

Time Temperature Precipitation Wind Pressure Humidity
00:00 +16°C° 0 mm 1 mps 746 mmHg 73%
01:00 +15°C° 0 mm 0 mps 746 mmHg 74%
02:00 +15°C° 0 mm 1 mps 746 mmHg 75%
03:00 +15°C° 0 mm 1 mps 745 mmHg 76%
04:00 +15°C° 0 mm 1 mps 745 mmHg 77%
05:00 +16°C° 0 mm 2 mps 745 mmHg 73%
06:00 +17°C° 0 mm 2 mps 745 mmHg 69%
07:00 +19°C° 0 mm 3 mps 745 mmHg 65%
08:00 +20°C° 0.1 mm 4 mps 745 mmHg 61%
09:00 +21°C° 0.1 mm 4 mps 745 mmHg 56%
10:00 +22°C° 0.1 mm 5 mps 745 mmHg 51%
11:00 +22°C° 0.3 mm 5 mps 745 mmHg 57%
12:00 +21°C° 0.3 mm 5 mps 746 mmHg 62%
13:00 +20°C° 0.3 mm 6 mps 746 mmHg 68%
14:00 +21°C° 0.3 mm 5 mps 746 mmHg 61%
15:00 +21°C° 0.3 mm 5 mps 746 mmHg 55%
16:00 +21°C° 0.3 mm 5 mps 746 mmHg 49%
17:00 +20°C° 0 mm 5 mps 746 mmHg 50%
18:00 +20°C° 0 mm 4 mps 746 mmHg 51%
19:00 +19°C° 0 mm 3 mps 746 mmHg 52%
20:00 +18°C° 0 mm 4 mps 747 mmHg 55%
21:00 +18°C° 0 mm 4 mps 747 mmHg 57%
22:00 +17°C° 0 mm 4 mps 747 mmHg 59%
23:00 +15°C° 0 mm 5 mps 747 mmHg 63%

3 August, Tuesday

Time Temperature Precipitation Wind Pressure Humidity
00:00 +15°C° 0 mm 5 mps 747 mmHg 68%
01:00 +14°C° 0 mm 5 mps 748 mmHg 72%
02:00 +14°C° 0 mm 5 mps 748 mmHg 75%
03:00 +14°C° 0 mm 5 mps 748 mmHg 77%
04:00 +14°C° 0 mm 5 mps 748 mmHg 80%
05:00 +15°C° 0 mm 5 mps 748 mmHg 78%
06:00 +16°C° 0 mm 5 mps 749 mmHg 75%
07:00 +17°C° 0 mm 5 mps 749 mmHg 72%
08:00 +19°C° 0 mm 5 mps 749 mmHg 65%
09:00 +20°C° 0 mm 5 mps 750 mmHg 57%
10:00 +22°C° 0 mm 4 mps 750 mmHg 50%
11:00 +22°C° 0.1 mm 4 mps 750 mmHg 51%
12:00 +22°C° 0.1 mm 4 mps 750 mmHg 53%
13:00 +22°C° 0.1 mm 4 mps 750 mmHg 54%
14:00 +22°C° 0.2 mm 4 mps 750 mmHg 54%
15:00 +22°C° 0.2 mm 3 mps 750 mmHg 54%
16:00 +22°C° 0.2 mm 3 mps 750 mmHg 53%
17:00 +21°C° 0.3 mm 2 mps 751 mmHg 60%
18:00 +19°C° 0.3 mm 2 mps 751 mmHg 67%
19:00 +18°C° 0.3 mm 2 mps 751 mmHg 73%
20:00 +17°C° 0 mm 2 mps 751 mmHg 76%
21:00 +16°C° 0 mm 2 mps 751 mmHg 79%
22:00 +15°C° 0 mm 1 mps 752 mmHg 82%
23:00 +15°C° 0 mm 1 mps 752 mmHg 82%

4 August, Wednesday

Time Temperature Precipitation Wind Pressure Humidity
00:00 +15°C° 0 mm 1 mps 752 mmHg 82%
01:00 +14°C° 0 mm 1 mps 752 mmHg 82%
02:00 +14°C° 0 mm 1 mps 752 mmHg 83%
03:00 +14°C° 0 mm 1 mps 752 mmHg 84%
04:00 +14°C° 0 mm 1 mps 752 mmHg 85%
05:00 +15°C° 0 mm 1 mps 752 mmHg 79%
06:00 +18°C° 0 mm 1 mps 752 mmHg 73%
07:00 +19°C° 0 mm 1 mps 752 mmHg 68%
08:00 +20°C° 0 mm 1 mps 752 mmHg 63%
09:00 +21°C° 0 mm 1 mps 752 mmHg 59%
10:00 +22°C° 0 mm 1 mps 752 mmHg 54%
11:00 +23°C° 0 mm 1 mps 752 mmHg 50%
12:00 +24°C° 0 mm 1 mps 752 mmHg 47%
13:00 +25°C° 0 mm 1 mps 752 mmHg 43%
14:00 +25°C° 0 mm 2 mps 752 mmHg 44%
15:00 +24°C° 0 mm 2 mps 752 mmHg 45%
16:00 +24°C° 0 mm 3 mps 752 mmHg 46%
17:00 +22°C° 0 mm 3 mps 752 mmHg 52%
18:00 +21°C° 0 mm 3 mps 752 mmHg 58%
19:00 +19°C° 0 mm 3 mps 752 mmHg 64%
20:00 +18°C° 0 mm 3 mps 752 mmHg 69%
21:00 +17°C° 0 mm 3 mps 753 mmHg 75%
22:00 +16°C° 0 mm 2 mps 753 mmHg 80%
23:00 +15°C° 0 mm 2 mps 753 mmHg 82%
Show more